RH
49 49 50 51 54 55 55 55 56 57 58 58 57 57 58 57 55 52 49 48 48 49 49 49 48 49 49 49 51 56 62 65 67 68 69 69 71 72 74 75 76 78 79 80 80 81 82 82 83 84 83 85 85 84 84 85 84 84 84 86 87 87 91 92 92 92 94 92 92 93 94 95 96 96 95 96 96 95 95 95 96 96 96 94 92 90
50 51 52 54 56 57 56 56 57 58 59 58 58 58 58 57 54 51 49 48 48 49 49 49 49 49 49 49 50 55 61 65 66 67 67 68 69 71 73 75 76 77 78 78 79 79 80 81 82 82 81 83 84 83 83 84 85 86 87 89 89 89 89 92 94 94 94 94 94 95 96 96 96 96 96 96 95 95 93 94 94 94 95 93 92 91
51 52 54 55 56 57 57 56 57 58 58 58 58 58 58 57 55 52 50 49 48 49 49 50 50 50 49 49 50 54 61 64 65 66 66 67 69 71 73 75 75 76 77 78 78 78 78 79 79 80 81 82 83 83 83 83 85 86 87 88 90 91 91 93 94 95 94 94 95 96 96 96 96 96 96 96 96 96 95 94 94 95 96 95 93 92
54 54 55 55 56 57 56 56 57 57 56 56 56 57 58 58 56 54 51 50 49 49 49 50 50 50 50 49 50 54 60 63 65 66 66 66 68 70 72 73 74 75 76 77 77 77 77 77 78 79 79 80 80 81 81 82 83 85 87 88 90 92 91 93 95 96 96 95 95 95 96 96 96 97 96 95 96 96 95 94 95 95 96 95 93 92
56 56 55 55 56 56 56 56 57 57 56 55 55 57 59 59 58 56 53 51 50 50 49 50 50 50 50 50 51 54 60 62 64 64 64 65 66 68 71 72 73 74 75 75 76 75 75 75 75 76 77 78 78 79 79 80 82 85 87 88 89 91 92 94 95 96 96 96 96 95 95 96 96 97 97 95 95 96 96 95 95 95 95 95 94 93
58 57 56 56 56 56 56 56 57 58 58 58 58 58 58 58 58 58 57 55 54 52 51 50 49 49 49 50 52 55 58 61 62 63 63 63 65 67 70 71 72 73 74 74 75 74 73 72 72 73 75 76 76 77 78 79 81 84 87 87 88 90 92 93 94 95 95 96 96 95 95 96 96 96 96 96 95 95 95 95 95 95 94 95 95 94
58 57 56 56 56 56 56 56 58 59 61 62 62 60 59 58 59 59 60 58 57 56 54 52 50 48 47 49 51 54 57 59 60 60 60 62 64 67 69 71 71 72 72 73 73 73 72 71 71 72 73 74 74 75 76 78 81 83 86 86 87 89 90 91 93 95 95 95 96 96 96 96 96 95 96 95 95 94 95 95 95 95 94 95 95 95
57 57 56 56 56 56 56 57 58 60 62 64 65 65 62 62 61 60 58 57 57 57 56 55 53 50 47 48 51 54 56 57 58 58 59 61 63 66 69 70 70 70 70 71 72 71 71 70 71 71 72 72 72 73 75 77 80 83 85 86 87 88 89 90 92 94 94 94 94 95 95 96 95 95 95 95 95 95 94 95 95 94 94 95 95 95
57 57 57 57 57 58 58 59 60 61 62 64 66 68 67 67 66 64 61 57 56 56 57 58 57 54 50 49 51 54 56 57 58 59 60 62 64 67 69 69 69 69 69 69 70 70 70 69 70 70 70 70 70 72 74 76 79 82 85 86 87 88 88 90 91 92 92 92 93 94 95 95 95 95 95 95 95 94 94 95 95 95 96 96 96 95
57 57 57 58 58 59 61 62 62 63 64 65 66 68 70 72 71 69 66 61 58 57 57 58 58 57 55 52 52 54 56 56 58 59 62 64 66 68 70 69 68 68 68 67 67 68 68 69 69 69 69 69 69 71 74 76 79 82 85 85 86 87 87 89 89 89 90 91 93 94 96 95 95 95 95 95 95 95 95 96 96 96 96 96 95 95
59 59 59 60 61 62 63 64 65 65 66 67 68 69 69 73 75 74 71 66 63 61 60 60 59 58 57 55 54 54 55 56 58 59 62 64 66 68 69 69 68 67 66 65 65 65 67 68 68 68 68 68 69 71 74 77 80 82 84 84 85 85 86 87 87 88 90 91 92 93 96 96 95 95 95 94 95 95 95 96 96 96 95 95 95 95
61 61 61 63 64 65 66 67 67 67 68 71 72 73 72 76 78 77 75 71 68 66 65 63 62 60 58 56 55 55 55 58 60 62 65 67 68 69 70 69 67 66 65 63 62 63 66 67 68 67 67 68 69 72 76 78 80 82 83 84 84 84 85 85 86 88 89 90 91 92 94 94 94 94 95 94 94 95 95 95 95 95 95 95 95 94
62 62 63 66 67 69 70 71 71 72 72 75 77 79 79 81 81 80 78 74 71 69 68 66 64 61 57 55 54 55 56 59 63 66 68 70 70 71 71 70 68 66 64 62 62 62 65 67 67 66 66 68 70 74 77 79 80 82 83 84 84 83 84 85 86 87 88 90 91 91 93 93 94 94 95 94 94 94 94 95 95 95 95 95 95 94
65 64 66 70 72 73 73 75 75 76 76 78 81 83 84 85 84 83 80 76 73 71 70 69 66 62 57 54 53 54 57 62 66 69 71 71 72 72 72 70 68 65 63 63 63 63 65 66 65 65 65 68 71 75 78 79 81 82 84 83 83 82 83 85 86 87 87 88 89 90 91 93 94 93 94 93 93 94 95 95 95 95 94 95 95 95
69 69 73 75 76 76 76 77 78 79 80 82 84 87 88 87 86 85 82 79 76 74 72 71 68 63 57 54 53 55 59 65 68 71 72 72 72 71 71 69 67 65 63 63 63 64 65 65 65 65 65 69 73 76 79 80 82 83 83 82 81 81 83 85 86 86 86 87 88 90 89 92 92 91 92 92 93 94 95 95 95 95 95 94 94 94
72 73 77 78 79 79 78 80 81 83 84 86 88 90 90 90 89 87 85 82 79 76 75 73 70 65 58 55 54 56 61 67 71 72 73 72 71 70 69 68 66 65 63 64 64 65 65 65 66 66 67 71 75 78 79 81 83 83 82 80 79 80 82 84 85 85 86 87 87 89 90 91 91 90 90 91 92 94 95 95 95 95 94 94 94 94
74 74 78 80 81 80 80 82 84 86 88 89 90 91 91 91 90 89 87 84 82 80 79 78 75 69 61 57 56 58 63 69 72 73 72 71 70 69 68 67 66 65 64 65 65 65 65 66 66 68 70 74 77 79 80 81 81 81 80 79 79 80 82 83 83 84 84 85 87 87 87 89 90 89 89 90 91 92 94 94 95 94 93 93 94 95
76 76 77 80 81 82 83 85 86 88 91 92 92 92 91 90 90 90 88 87 85 84 83 82 79 74 69 64 61 61 65 70 72 73 71 70 70 68 67 67 66 66 66 66 65 65 66 66 67 68 71 75 77 78 79 79 78 78 78 78 80 81 82 82 82 82 83 84 86 88 89 89 89 89 89 90 91 92 93 94 94 93 92 92 94 95
77 76 77 79 80 82 84 87 89 91 92 92 93 92 91 91 91 90 89 89 88 88 87 85 82 78 74 69 66 65 66 69 71 72 71 71 70 69 67 67 67 67 67 66 65 65 66 66 66 67 70 74 76 77 77 76 76 77 78 79 80 81 81 81 80 81 82 83 85 86 86 88 88 88 88 90 90 91 92 92 93 93 92 92 93 94
76 75 76 78 80 82 84 85 88 90 93 93 93 93 92 92 92 91 92 91 91 90 88 86 83 79 75 72 70 68 67 68 70 72 73 72 70 68 66 68 68 68 67 66 65 66 67 67 66 65 67 72 75 76 74 74 75 77 79 80 81 81 80 79 79 80 81 84 85 86 86 87 87 88 88 89 90 91 93 92 93 93 92 93 94 95
73 72 73 76 79 82 85 85 88 91 93 94 94 93 92 93 93 92 92 92 91 90 88 85 82 79 75 75 73 70 65 67 71 75 75 72 69 67 67 69 71 70 68 67 67 67 69 68 66 66 68 72 73 73 72 74 76 78 80 80 80 80 79 78 79 80 82 83 84 85 86 86 86 87 88 87 88 89 90 91 92 92 92 92 93 95
67 67 68 71 76 81 85 88 91 92 93 94 94 94 93 93 93 93 92 92 91 90 87 84 81 78 75 74 71 66 63 66 72 76 76 73 69 68 69 72 72 70 68 68 68 69 70 69 68 67 68 70 71 71 72 75 77 79 80 80 79 79 78 78 78 80 82 83 84 84 85 85 85 86 86 86 87 88 89 90 91 91 93 93 94 95
57 59 61 66 73 81 88 92 93 93 94 94 94 94 94 93 92 91 91 90 89 88 85 83 80 76 73 71 67 64 63 67 72 75 76 74 72 71 73 73 72 71 70 70 70 71 72 70 69 68 67 67 68 70 73 75 77 79 79 79 78 78 78 78 79 80 82 83 83 84 84 85 85 85 85 85 85 86 86 89 90 91 92 92 93 94
51 55 61 68 77 85 92 93 93 93 94 94 94 94 93 91 88 85 83 84 84 84 85 84 81 78 73 70 67 65 64 68 72 75 77 76 76 76 76 75 74 73 73 73 73 74 73 72 70 68 66 65 67 70 72 75 77 78 78 78 78 77 78 78 79 80 81 82 83 83 84 84 84 84 85 85 85 85 86 87 89 91 91 92 93 93
57 63 70 78 85 90 92 92 92 93 93 94 94 93 92 86 80 76 76 80 83 86 88 85 82 79 75 73 71 69 67 69 71 74 79 79 79 78 76 75 75 75 74 74 74 74 74 72 70 67 65 65 66 69 72 74 76 77 77 77 77 77 78 78 79 80 82 82 82 83 83 83 84 84 84 84 84 84 85 86 88 90 91 91 92 92
71 77 82 85 88 89 90 90 91 92 92 93 93 92 89 81 76 74 77 83 87 89 88 84 81 79 78 75 74 73 71 70 71 74 80 81 80 78 76 76 76 76 75 75 75 74 73 72 69 66 64 65 66 69 71 73 75 76 76 76 77 77 77 78 79 80 81 81 82 82 83 83 83 83 83 83 84 84 85 86 87 89 90 91 91 91
80 84 85 85 85 86 86 86 87 89 91 92 92 91 86 81 79 80 85 88 89 89 87 84 82 80 79 78 77 76 74 70 71 75 81 83 81 78 77 77 77 77 76 75 75 74 72 69 67 65 65 66 67 69 70 72 74 75 75 75 76 77 77 78 79 80 81 81 82 82 82 82 83 83 83 83 83 84 85 86 87 88 89 89 89 89
71 74 76 79 80 79 78 77 81 85 88 89 90 89 84 82 83 85 88 89 89 88 86 84 83 82 80 80 79 78 74 71 72 76 83 83 82 79 77 78 78 78 77 76 75 72 69 66 64 64 66 67 69 69 69 71 72 73 73 74 75 75 76 77 78 80 80 81 81 82 82 82 82 82 82 82 83 83 84 86 86 87 87 87 86 86
58 60 61 66 67 67 67 67 72 78 85 86 86 86 83 82 84 86 88 89 89 88 86 85 84 83 82 81 80 77 72 70 73 78 84 84 82 80 79 80 80 79 78 76 74 70 66 64 64 65 67 68 70 70 70 70 70 71 71 72 73 73 75 76 77 78 79 79 80 81 82 82 82 81 81 82 83 83 84 85 86 86 86 85 84 83
55 57 57 59 61 64 66 67 69 71 78 81 81 81 80 81 83 85 87 87 88 88 87 86 86 85 84 82 79 75 71 72 75 80 86 85 83 81 81 81 81 80 80 78 74 69 65 64 65 66 68 70 70 71 71 70 70 70 70 71 71 72 73 75 76 77 77 78 79 80 80 81 81 81 81 82 83 83 85 86 86 85 85 83 82 82
62 62 62 62 64 66 68 70 71 72 74 76 77 78 79 80 82 83 84 85 87 88 88 88 88 87 87 84 81 77 74 76 79 82 88 88 86 84 83 83 82 81 81 81 78 73 69 66 66 68 70 71 71 71 71 70 70 71 71 71 71 71 72 74 75 75 76 76 77 78 79 79 80 80 81 82 83 83 85 85 86 85 85 83 82 81
66 67 66 66 67 68 70 72 73 75 76 77 78 79 81 81 82 82 83 84 86 87 89 89 89 89 89 87 85 82 80 81 83 85 90 91 89 86 85 84 83 82 82 82 82 79 75 71 69 70 71 72 72 71 71 70 71 71 72 72 71 71 72 73 74 74 75 75 76 77 77 78 78 79 80 81 82 84 85 85 86 86 85 83 82 81
68 69 69 69 70 72 73 75 76 78 79 80 81 81 82 82 82 83 83 84 85 87 88 90 90 90 90 89 87 85 84 84 84 86 90 92 91 89 87 86 84 83 82 82 81 80 78 75 73 72 72 72 72 72 71 71 71 72 72 72 72 71 72 73 73 73 74 75 75 75 75 76 77 78 79 80 82 84 85 85 85 85 85 84 83 81
68 69 71 72 74 75 76 78 79 81 82 82 83 83 83 83 83 83 83 83 84 86 87 89 90 91 91 90 89 87 86 86 85 86 90 92 92 90 89 87 86 84 83 81 80 78 77 76 75 74 72 72 72 72 71 71 72 72 73 72 72 72 72 72 73 74 74 75 75 75 75 75 77 78 78 80 82 84 86 86 85 85 84 84 83 82
70 71 73 75 76 77 79 80 82 83 84 84 84 84 84 83 83 83 83 84 85 85 86 87 88 89 91 91 90 89 88 87 86 86 88 91 91 91 90 88 87 86 85 83 81 79 78 77 76 75 74 73 72 71 70 71 72 73 73 72 72 72 72 73 73 74 75 75 75 75 75 76 77 78 78 80 82 83 84 84 84 84 83 83 83 82
71 73 75 77 79 80 81 82 83 83 84 84 84 84 83 83 83 83 84 85 85 85 85 85 85 86 87 88 89 89 88 85 84 83 83 84 86 88 89 87 86 86 86 84 83 82 81 79 77 76 75 74 72 71 71 72 73 73 72 72 72 72 72 73 73 74 75 75 75 76 76 77 78 79 79 80 81 82 83 83 83 83 83 82 82 81
74 75 77 79 80 81 82 83 83 84 84 84 84 83 82 82 83 83 85 86 86 86 85 84 84 84 84 84 84 83 83 81 79 78 78 77 78 80 83 83 84 85 86 86 85 84 83 81 79 76 74 73 73 72 71 72 72 72 72 72 73 72 72 73 74 75 75 75 76 76 77 78 79 79 80 80 81 81 81 81 81 81 81 81 81 80
78 78 78 79 81 82 83 83 83 84 84 84 84 83 82 82 83 84 86 87 87 86 85 85 84 84 84 82 80 79 78 77 76 75 75 75 75 76 79 81 82 83 85 85 86 86 86 84 81 78 75 74 74 74 74 73 72 72 73 73 73 72 72 73 74 75 75 75 76 77 77 79 79 80 80 80 81 81 81 80 79 79 79 79 79 78
80 80 80 80 81 82 83 84 84 84 85 85 84 83 83 83 84 86 87 88 87 86 85 84 84 84 83 81 79 77 76 76 75 75 76 76 75 76 78 81 83 83 83 84 86 87 87 85 83 81 79 77 76 75 74 73 73 73 73 73 72 71 72 73 74 74 75 75 76 77 78 79 79 79 80 80 81 82 82 81 79 79 79 79 78 76
81 82 82 82 82 83 84 84 85 85 86 85 85 85 84 85 86 87 88 89 87 86 84 84 84 83 82 80 78 77 76 76 77 77 78 77 76 76 77 79 81 81 82 83 84 86 86 85 84 83 81 80 78 76 74 73 73 74 73 73 72 71 72 73 74 74 75 75 76 78 79 79 79 80 80 81 82 82 82 81 80 79 79 79 78 77
83 83 83 83 84 84 84 85 86 86 87 86 86 85 85 85 86 86 86 87 86 85 84 83 83 83 82 80 78 77 77 77 78 79 79 78 77 76 76 78 79 80 82 83 83 84 85 84 83 82 81 80 78 77 75 74 74 74 74 72 72 72 73 73 73 74 75 76 77 78 79 79 79 80 81 81 82 82 81 80 79 79 79 78 77 77
84 85 85 85 85 85 85 86 86 87 87 86 85 86 86 86 86 86 86 85 84 84 83 83 83 83 81 79 78 78 78 79 79 79 79 79 79 78 78 78 78 79 82 83 83 83 83 83 83 82 80 79 79 78 76 75 73 72 72 72 72 72 72 71 72 74 75 76 77 78 78 79 80 81 82 82 81 81 80 79 79 79 79 78 77 76
85 86 86 87 86 86 85 85 86 86 86 86 86 86 85 85 85 85 85 84 84 84 83 83 82 82 80 79 78 78 78 79 80 80 80 80 80 79 79 78 78 79 80 83 83 82 82 81 81 80 80 80 80 79 77 75 73 72 71 71 71 72 71 71 73 75 76 77 78 78 79 80 82 82 82 82 81 80 79 78 78 78 78 77 76 75
86 87 87 87 87 87 86 85 85 86 86 86 86 85 84 84 84 84 84 84 84 83 83 82 81 81 79 78 78 78 79 79 80 80 81 81 80 80 80 80 80 80 81 82 83 83 82 81 80 79 78 78 79 78 77 75 73 72 71 71 72 73 74 75 75 76 77 78 78 79 81 83 83 83 82 81 79 79 78 78 78 77 77 76 75 75
87 86 86 87 87 87 86 86 86 86 85 85 85 85 84 83 83 83 84 83 83 83 83 82 81 80 79 79 78 78 78 79 80 81 81 81 81 81 80 80 81 81 81 81 82 82 82 82 80 79 77 77 76 76 75 73 73 72 71 72 73 74 75 76 77 77 78 79 80 81 83 84 84 83 81 79 78 78 78 78 78 77 77 76 75 75
86 85 85 85 85 85 86 86 86 85 84 84 84 84 83 83 82 82 82 82 82 82 81 81 81 80 80 80 79 79 78 79 79 80 81 81 81 81 81 81 81 81 81 81 80 80 79 79 78 77 76 75 74 73 71 72 72 73 73 74 75 76 77 77 77 78 79 81 82 82 83 83 83 82 81 79 78 78 78 78 77 77 76 76 76 76
87 86 86 86 86 87 87 87 86 86 85 84 84 84 83 82 82 82 81 81 82 82 81 81 81 81 81 80 80 79 80 80 80 80 80 81 81 82 81 81 81 81 81 80 79 78 77 75 74 73 72 73 72 72 71 72 73 75 75 76 77 77 78 78 78 79 81 82 83 84 84 84 83 82 80 79 78 78 77 77 77 77 76 76 76 76
88 87 87 88 88 88 88 88 87 87 86 85 84 83 82 82 82 82 81 81 81 81 81 81 81 81 81 80 80 80 81 81 81 81 80 81 81 81 81 81 81 81 80 80 78 77 75 74 72 70 68 69 71 72 73 74 75 76 77 78 78 79 79 79 80 80 82 83 84 85 86 85 84 83 81 80 78 77 77 77 77 76 76 76 76 77
90 90 89 89 88 88 88 88 88 88 87 87 85 83 82 81 81 81 81 81 81 81 82 82 82 81 81 80 80 80 81 81 81 80 80 81 81 81 81 81 80 80 80 79 77 76 74 73 71 69 67 68 70 73 75 75 76 77 78 79 79 80 81 81 81 82 83 85 85 85 84 84 83 82 81 80 79 78 77 76 76 76 76 77 77 78
91 91 91 90 89 88 88 88 88 87 87 87 86 84 82 81 80 80 80 80 81 81 82 82 82 82 82 81 81 81 81 81 81 81 81 81 82 82 81 81 80 80 79 77 76 74 73 71 70 68 67 69 71 73 75 76 77 79 80 80 80 81 83 83 83 83 84 85 84 84 83 82 81 80 80 81 80 79 77 76 76 77 77 78 78 78
91 91 91 90 89 89 88 88 88 87 87 87 86 84 83 82 81 80 80 81 81 82 82 82 82 82 82 82 81 81 82 82 82 82 82 82 82 82 82 82 81 81 79 77 75 74 72 71 69 68 67 68 71 74 75 77 79 80 81 81 82 83 84 84 84 84 84 83 83 83 82 81 80 79 80 81 81 80 78 76 76 77 78 79 79 79
Wind_Speed
11 12 13 14 14 14 14 15 17 19 21 23 23 23 22 22 22 22 22 22 22 22 22 21 22 22 23 23 22 21 21 21 22 23 24 24 25 24 24 24 24 23 23 23 22 22 21 21 20 20 20 20 20 20 20 21 21 22 22 23 24 24 25 25 26 26 26 26 26 26 26 26 26 26 26 26 26 26 25 26 26 26 26 26 25 26
12 12 13 14 14 14 13 15 17 19 21 22 23 23 22 22 23 23 23 23 22 22 22 22 22 23 23 23 23 21 20 21 21 22 24 24 25 25 25 24 24 24 23 23 23 22 22 21 21 20 20 20 20 20 20 20 21 22 23 23 24 24 25 25 26 26 26 26 26 26 26 26 26 26 26 26 26 26 25 25 26 26 26 26 25 26
13 13 14 15 14 14 14 15 17 19 21 22 22 22 22 22 23 23 24 24 23 22 22 22 23 23 24 24 23 21 20 20 21 22 23 24 25 26 25 25 24 24 24 23 23 23 22 22 21 21 20 20 20 20 20 20 21 22 23 23 24 24 25 26 26 27 27 27 27 26 26 26 26 26 26 26 26 26 26 26 26 26 26 26 26 26
13 14 15 15 14 13 13 15 17 19 21 22 22 22 21 21 22 23 24 24 24 23 23 23 23 23 24 24 23 22 20 20 21 22 23 24 26 26 26 26 25 24 24 23 23 23 23 22 22 21 21 20 20 20 20 20 21 22 23 24 24 25 25 26 27 27 27 27 27 26 26 26 26 26 26 26 26 26 26 26 26 26 26 26 26 26
13 13 14 14 13 12 12 14 16 19 21 22 23 22 21 21 21 22 23 24 24 24 24 24 24 24 24 24 23 22 20 20 20 21 23 24 25 26 26 26 25 25 24 24 23 23 23 22 22 21 21 21 20 20 20 20 21 22 23 24 25 25 26 26 27 27 27 27 27 27 26 26 26 26 26 26 26 26 26 26 26 26 26 26 26 26
13 13 13 13 12 12 12 13 16 19 21 22 22 22 22 22 22 22 23 24 23 23 24 25 25 25 25 24 23 21 20 20 20 21 23 25 25 26 26 26 26 25 25 24 23 23 23 23 22 22 22 21 21 20 20 20 21 22 23 24 25 26 26 27 27 27 27 27 27 27 27 27 26 26 26 26 26 26 26 26 26 26 26 26 26 27
12 13 12 12 12 12 12 13 16 19 21 21 21 22 23 23 24 24 24 23 23 23 23 24 26 27 26 25 23 22 20 20 20 22 24 25 26 26 26 26 26 25 25 24 24 23 23 23 22 22 22 22 21 21 21 21 21 22 23 24 25 26 27 27 27 27 27 27 27 27 27 27 26 26 26 26 26 26 26 26 26 26 26 26 26 26
12 13 12 12 12 12 12 13 16 19 21 21 20 21 22 23 24 25 25 25 24 23 23 24 26 27 27 26 24 22 21 21 21 23 25 26 26 26 26 25 25 25 25 25 24 23 23 23 23 22 22 22 22 21 21 22 22 23 24 25 25 26 27 27 27 27 27 27 27 27 27 26 26 26 26 26 26 26 26 26 26 26 26 26 26 26
13 13 13 12 13 13 13 13 15 18 20 21 20 19 20 22 23 25 25 25 25 25 24 25 26 27 27 26 25 23 21 21 22 23 25 26 26 26 25 25 25 25 25 25 24 24 23 23 22 23 22 22 22 22 22 22 23 23 24 25 25 26 27 27 27 27 27 27 27 27 27 26 26 26 26 26 26 26 26 26 26 26 26 26 26 26
12 13 13 12 13 13 14 14 15 17 19 20 19 18 19 20 22 24 25 25 25 25 25 26 26 27 27 27 25 23 22 22 23 24 24 25 25 25 24 24 24 25 25 25 24 24 23 23 22 22 22 23 23 23 23 23 23 23 24 25 25 26 27 27 27 27 27 27 27 27 27 27 26 26 26 26 26 26 26 26 26 26 26 26 26 26
12 13 13 12 12 13 14 14 15 16 19 20 20 19 20 20 21 22 23 24 25 26 25 25 25 26 27 26 25 23 23 24 25 26 26 26 26 25 25 24 24 24 24 24 24 24 23 23 22 22 23 23 23 23 23 23 23 24 24 25 25 26 26 27 27 27 27 27 27 27 27 27 26 26 26 26 26 26 26 26 26 25 25 25 26 26
12 13 13 12 13 14 15 16 16 17 19 20 20 20 21 21 21 21 21 22 23 24 25 25 25 25 25 24 24 24 24 25 26 26 26 27 27 26 26 26 25 25 25 25 24 24 23 22 22 22 23 24 24 24 24 24 24 24 24 25 25 26 26 27 27 27 27 27 27 27 26 26 26 26 26 26 26 26 26 26 25 25 25 25 26 26
12 12 13 13 13 14 15 16 17 18 19 19 19 19 20 21 21 20 19 20 21 22 24 24 24 24 23 21 21 23 25 26 26 26 25 25 26 26 26 26 26 26 26 25 25 25 23 23 23 23 24 24 24 24 24 24 24 24 24 25 25 26 26 27 27 27 27 27 27 27 27 26 26 26 26 26 26 26 26 25 25 25 25 25 26 26
12 13 13 13 14 14 15 16 17 17 18 18 18 18 19 20 21 21 20 20 21 22 22 22 23 23 22 20 20 22 25 26 26 26 25 25 25 26 26 26 26 26 26 25 25 24 23 23 24 25 25 25 25 24 24 24 24 24 25 25 25 26 26 27 27 27 27 26 26 26 27 26 26 26 26 26 26 26 26 25 25 25 25 25 26 26
12 13 13 13 13 14 15 16 16 16 17 17 18 19 19 20 20 20 20 20 21 22 22 22 22 22 20 19 20 23 25 26 26 26 25 25 25 25 26 26 26 26 25 25 24 24 24 24 25 26 26 25 25 24 24 24 25 25 25 25 26 26 27 27 27 27 27 26 26 26 26 26 26 26 26 26 26 26 25 25 25 25 25 25 25 25
11 12 12 12 12 13 14 15 15 16 17 18 19 19 19 19 20 20 20 20 21 21 21 22 22 21 20 20 21 24 26 27 26 26 26 25 25 25 26 26 26 26 26 25 24 24 25 25 25 26 26 25 24 24 25 25 25 25 25 26 26 26 27 27 27 27 26 26 26 27 27 27 26 26 26 26 26 26 25 25 25 25 25 25 25 25
11 11 11 12 12 13 14 14 15 16 17 18 18 18 18 18 19 19 19 19 20 20 19 19 18 17 18 21 24 25 28 27 27 26 25 25 24 25 26 26 26 26 26 25 24 24 25 25 26 26 25 24 24 25 25 25 26 26 26 26 26 27 27 27 27 27 27 26 27 27 26 26 26 26 26 26 26 26 25 25 25 25 25 25 25 25
10 11 11 11 12 13 13 14 15 16 17 18 18 18 18 18 19 19 19 19 19 19 19 18 16 15 15 19 23 27 29 29 27 26 25 24 24 25 26 25 25 25 25 24 24 24 25 26 27 27 25 24 24 25 25 26 26 26 26 26 27 27 27 27 27 27 27 27 27 27 27 26 26 26 26 26 26 26 25 25 25 25 25 25 25 24
8 9 11 11 12 12 13 14 15 16 16 16 17 17 18 19 19 19 19 18 18 18 18 17 17 17 17 19 23 27 29 29 27 25 24 23 23 25 26 26 25 25 24 24 24 25 26 27 28 27 25 24 24 25 25 26 26 27 27 27 27 27 27 27 27 27 27 27 27 27 27 27 26 26 26 26 26 26 26 25 25 25 25 25 25 24
7 8 9 10 11 12 13 14 15 15 15 15 16 16 17 18 19 20 19 19 18 18 18 17 18 18 19 21 24 26 28 27 25 24 23 22 23 24 25 26 26 25 25 24 25 26 27 28 29 27 25 24 24 25 26 26 26 27 27 27 27 27 27 27 27 27 27 27 28 27 27 27 26 26 26 26 26 26 26 25 25 25 25 25 24 23
7 7 9 10 11 12 12 14 14 14 14 15 16 16 16 17 18 19 19 19 19 19 18 18 18 20 21 22 23 25 26 25 24 22 22 22 22 23 25 25 25 24 24 24 25 27 27 28 28 27 25 24 24 25 26 26 27 27 27 27 27 27 27 28 28 28 28 28 28 28 27 27 27 26 26 26 26 26 26 26 26 26 25 25 24 23
7 8 9 10 11 12 12 14 14 14 14 15 16 16 16 17 17 18 19 19 19 18 19 19 19 21 21 21 22 23 22 23 22 21 21 21 22 24 25 25 25 24 24 25 27 28 29 28 27 26 24 24 24 25 26 27 28 28 28 28 27 27 28 28 28 28 28 28 28 28 28 27 27 26 26 26 26 26 26 26 26 26 26 25 24 22
8 9 10 11 12 12 13 14 14 14 14 14 15 15 15 16 17 18 18 18 18 19 19 20 20 20 19 19 19 20 21 21 21 21 20 19 20 24 25 25 25 24 24 26 27 28 29 28 26 25 24 24 24 25 27 28 28 28 28 28 27 28 28 28 28 28 29 29 28 28 28 27 27 27 27 27 27 27 26 26 26 26 26 25 23 22
10 11 11 12 12 13 13 13 13 13 14 15 15 15 15 16 17 16 16 16 17 18 19 19 19 18 17 17 18 19 21 20 21 21 20 19 20 22 24 25 25 25 25 26 27 27 27 27 25 24 24 24 25 25 27 28 28 28 28 27 27 28 28 28 28 29 29 29 29 28 28 28 27 27 27 27 27 27 27 27 27 27 26 25 23 21
11 11 12 12 12 12 12 12 12 13 14 14 15 15 16 17 17 16 16 16 17 18 19 19 18 17 17 17 18 19 21 19 20 22 21 20 20 22 23 24 25 25 26 27 27 27 26 25 24 24 24 25 25 26 27 27 28 28 27 27 28 28 28 28 29 29 29 29 29 28 28 28 28 27 27 27 27 27 27 27 27 27 26 25 22 21
10 10 10 10 10 10 11 11 11 12 12 13 14 15 16 18 19 19 19 19 19 19 19 18 17 17 17 18 18 20 21 19 20 21 22 20 20 21 23 24 25 26 27 27 27 26 25 24 23 23 24 26 27 27 27 27 27 27 27 27 27 28 28 28 29 29 29 29 29 28 28 28 28 28 28 28 28 28 28 28 28 27 26 24 22 20
9 8 9 9 9 10 10 11 11 12 12 12 12 13 16 18 20 20 19 19 19 18 18 17 17 17 18 18 19 20 20 19 19 22 22 21 19 20 22 24 25 26 27 27 27 25 23 21 21 22 23 26 27 28 28 27 27 27 27 27 27 28 28 28 29 29 29 29 29 29 28 28 28 28 28 28 28 28 28 28 28 27 26 23 22 20
8 8 9 9 10 10 11 11 12 12 12 12 12 13 15 18 19 19 18 19 18 17 16 16 16 16 17 18 19 19 19 17 19 22 23 21 18 19 22 24 25 26 27 27 27 24 21 19 19 21 23 25 27 28 28 28 27 26 26 27 27 28 28 28 29 29 29 29 29 29 28 28 28 28 28 28 28 28 28 28 28 27 25 23 21 21
11 11 11 11 11 11 12 13 13 12 12 13 13 14 15 17 17 17 17 17 17 16 16 16 16 15 16 18 20 19 18 17 20 24 24 22 19 19 22 23 24 25 26 28 28 26 21 19 19 21 23 26 27 27 28 28 27 27 27 27 28 28 28 28 29 29 29 29 29 29 28 28 28 28 28 28 28 28 28 29 28 27 24 23 21 21
13 14 14 13 13 13 14 14 15 14 13 13 14 15 16 17 16 16 16 17 17 16 16 16 16 16 17 18 18 16 15 18 22 25 24 21 20 20 23 23 23 24 25 25 23 22 22 22 22 22 24 26 27 27 27 27 27 27 28 28 28 28 28 29 29 29 29 29 29 29 29 28 28 28 28 28 28 28 28 28 28 26 24 23 22 21
14 14 15 15 14 14 14 14 15 15 16 16 16 17 17 17 17 17 17 17 17 16 16 16 16 16 16 15 11 9 11 19 24 25 24 21 19 20 23 22 23 23 23 20 15 12 15 21 25 26 26 26 27 26 26 26 26 27 27 28 28 28 28 29 29 29 29 29 29 29 28 28 28 28 28 28 28 28 28 28 28 26 24 23 22 21
12 13 14 14 15 15 14 15 15 16 17 18 18 18 18 17 17 18 18 18 17 17 17 17 17 17 16 14 11 9 13 20 24 25 24 21 20 21 22 22 22 23 22 19 16 11 7 14 23 28 28 27 26 26 26 25 25 26 27 28 28 28 28 29 29 29 29 29 29 29 28 28 28 28 28 28 28 28 28 28 27 26 24 23 22 22
11 12 13 14 15 15 15 15 16 16 17 18 19 19 19 18 18 18 19 19 19 18 18 18 18 18 17 17 16 16 18 21 24 25 24 21 20 20 21 22 23 23 23 21 20 17 13 16 22 27 28 27 25 25 25 25 25 26 27 27 28 28 28 29 29 29 29 29 29 29 29 28 29 29 28 28 28 29 29 28 27 26 24 23 22 22
10 11 13 14 15 16 16 16 17 17 18 19 19 19 19 19 19 19 19 19 19 19 19 18 18 18 18 18 18 18 20 23 24 25 24 22 20 20 21 22 22 23 24 23 22 21 20 21 23 24 25 26 26 24 24 24 25 26 26 27 27 27 28 29 29 29 29 29 28 28 29 29 29 29 29 29 29 29 29 29 27 26 24 23 22 22
11 12 13 15 16 17 17 17 18 18 19 19 19 20 19 19 19 19 19 19 19 19 18 18 18 18 18 18 19 20 21 24 26 25 24 22 21 20 21 20 21 22 22 23 23 22 21 22 23 23 23 25 25 25 24 24 25 26 26 26 26 26 27 28 28 29 29 29 29 28 28 29 29 29 29 29 29 29 29 28 27 25 24 23 22 22
12 13 14 16 17 18 18 19 19 20 20 20 20 20 19 19 19 19 19 19 19 18 18 17 17 17 18 18 19 20 22 25 25 25 23 22 21 20 19 19 20 21 21 22 22 22 21 22 23 23 22 22 23 24 26 26 26 26 26 26 26 26 26 27 27 28 28 28 28 28 28 28 28 28 28 29 29 30 29 28 26 25 24 23 22 22
14 15 16 17 18 18 19 20 20 20 21 20 20 19 19 19 19 19 19 19 18 18 18 18 18 17 17 17 18 19 21 22 23 23 22 22 22 21 19 19 20 20 21 21 22 22 22 22 23 23 22 20 20 22 25 28 28 28 27 27 26 26 26 27 27 27 27 27 27 27 27 27 27 28 28 29 30 30 29 28 27 26 25 24 23 22
15 16 17 18 18 19 19 20 20 21 20 20 20 19 19 18 18 18 18 18 18 18 18 19 19 18 18 17 17 18 19 20 21 21 21 22 22 21 20 20 20 20 20 20 21 21 21 20 19 19 20 21 22 23 25 27 27 28 28 27 26 25 25 26 27 27 27 27 27 27 27 27 27 28 28 29 30 30 30 30 29 27 26 25 24 23
16 17 17 18 18 19 19 19 20 20 19 19 18 18 18 19 19 18 18 18 18 18 19 19 19 19 18 18 17 17 18 18 19 20 21 22 22 21 21 20 20 21 21 21 21 20 20 19 18 18 18 20 23 25 25 25 26 27 28 28 27 26 26 26 26 27 27 27 28 28 28 28 28 28 28 28 29 29 29 29 29 28 28 27 26 25
16 17 17 18 18 18 18 18 18 18 18 18 18 18 19 20 20 19 19 18 18 19 19 19 19 19 18 18 17 17 18 18 19 20 21 21 21 21 21 21 21 21 22 21 21 20 20 20 20 20 20 20 22 23 25 25 26 27 28 27 26 27 27 27 26 26 27 27 27 28 27 28 28 27 27 27 27 27 27 27 27 27 27 26 26 27
16 17 17 18 18 17 17 17 17 17 17 18 18 19 21 22 21 21 20 20 20 20 21 21 20 20 19 18 18 18 18 18 19 20 21 21 21 21 21 21 21 22 22 22 21 20 20 20 20 21 21 22 23 23 24 24 25 26 25 25 26 27 27 26 26 26 27 27 27 27 27 27 28 28 28 27 27 26 26 26 26 26 25 24 25 25
16 16 17 17 17 17 17 16 16 17 17 18 19 20 21 22 21 20 20 20 21 22 22 22 22 21 21 20 19 19 19 19 19 20 21 21 21 21 21 21 22 22 22 22 22 21 20 20 20 21 22 22 23 23 23 24 25 24 24 24 26 27 27 26 26 27 27 27 27 27 27 27 28 28 28 27 27 26 25 25 24 24 23 23 24 24
15 16 16 17 17 17 17 17 17 17 17 18 19 20 21 21 20 19 19 20 21 22 22 22 22 21 21 21 21 21 21 20 20 20 21 21 22 22 21 22 22 22 23 22 22 22 22 21 21 22 23 23 23 23 23 24 24 24 24 24 25 25 24 26 28 29 28 27 27 27 27 28 28 28 27 26 26 26 25 25 24 23 23 23 24 24
15 15 16 16 17 17 17 17 17 17 17 17 18 19 20 20 19 19 19 20 21 22 22 22 22 21 21 21 22 22 22 21 21 21 21 22 22 22 22 22 22 22 22 22 22 23 24 24 24 24 24 24 23 22 22 22 23 23 24 24 24 23 22 24 27 29 28 28 28 28 28 28 28 28 27 26 26 26 26 26 25 25 24 24 24 24
15 16 16 17 17 17 18 17 17 17 17 17 17 19 20 20 19 19 19 19 20 21 21 22 21 21 20 21 22 23 23 23 23 23 23 23 23 23 22 22 22 22 22 22 22 23 23 24 25 25 25 24 23 22 21 21 22 23 24 25 24 23 23 24 25 26 27 28 28 28 29 29 29 28 27 27 27 26 26 26 26 26 25 25 25 24
15 16 17 17 17 17 17 17 16 16 16 17 17 18 19 20 19 19 19 20 20 20 21 21 20 20 20 21 22 23 24 25 25 25 25 25 25 24 24 23 22 22 22 22 22 23 23 24 24 25 25 24 22 21 20 20 22 23 25 25 25 24 24 24 24 25 26 26 27 29 30 30 29 28 27 27 28 27 27 26 26 26 26 25 25 25
16 17 17 17 17 16 16 16 17 17 17 17 17 18 19 19 19 19 20 20 20 20 20 20 20 19 19 20 21 22 23 24 25 26 26 27 27 26 25 24 24 23 22 22 22 22 22 22 22 23 23 22 20 19 20 21 22 23 24 25 25 24 24 24 25 26 26 26 27 28 30 30 29 28 28 28 28 28 27 27 26 25 25 25 25 25
16 16 17 16 16 15 16 17 17 17 17 17 18 18 19 19 19 19 20 20 20 20 20 20 20 20 20 20 20 21 22 22 24 25 26 27 27 27 26 26 26 25 24 23 22 21 21 20 19 18 18 18 17 18 20 22 23 24 24 24 24 24 24 25 25 26 26 26 26 27 28 27 26 26 28 28 28 29 29 28 27 26 25 24 25 25
14 15 16 16 15 15 15 17 17 17 17 17 18 18 19 19 19 19 20 20 20 20 20 20 20 20 20 20 21 21 22 22 23 23 24 25 26 26 27 27 27 27 26 25 24 23 21 19 17 15 13 13 15 17 20 23 24 24 23 23 23 23 24 25 26 26 26 26 27 27 26 25 25 25 26 26 27 28 29 29 29 27 26 25 25 26
13 14 15 15 15 15 15 16 16 16 17 17 18 18 19 19 20 20 20 20 20 20 19 20 20 20 20 20 21 21 22 22 23 23 24 24 25 26 26 27 28 28 27 27 27 26 24 22 19 16 13 12 13 16 20 22 24 24 23 23 23 24 24 25 25 26 26 26 27 27 27 26 25 25 25 25 25 27 28 29 29 28 28 27 27 27
13 14 15 15 14 14 15 15 15 16 17 17 17 18 19 19 20 20 21 20 20 20 20 19 19 19 19 20 20 21 21 22 22 23 24 24 24 25 25 26 27 27 26 26 26 26 25 23 21 19 18 15 14 16 18 21 23 24 24 24 24 24 24 24 25 26 26 27 27 27 27 26 26 26 25 24 24 25 26 28 29 30 30 29 29 29
Wind_Direction
358 353 350 350 350 351 349 347 346 346 347 348 349 351 352 352 352 353 354 354 355 355 355 354 353 350 348 346 344 340 338 338 340 341 342 343 343 342 342 341 340 340 340 341 341 341 341 341 340 341 341 342 343 344 345 346 346 346 346 346 346 346 345 345 345 345 344 344 344 343 343 343 343 343 344 345 345 346 346 345 345 344 345 345 345 344
356 352 351 352 352 352 351 348 347 346 347 347 349 350 351 350 350 351 353 355 356 356 355 354 352 350 347 346 344 341 338 338 339 341 343 343 343 342 342 341 340 340 339 340 341 341 341 341 340 340 341 341 342 343 344 345 346 346 346 346 346 346 346 345 345 345 344 344 344 344 344 343 343 344 344 345 346 346 346 345 345 345 345 346 346 345
357 355 353 353 353 353 352 350 347 345 345 347 348 350 351 351 350 350 351 353 355 356 356 354 352 349 347 346 345 342 339 339 340 341 343 343 343 343 342 341 340 339 339 339 340 340 341 341 341 340 340 341 342 343 343 345 346 346 346 346 346 347 346 346 345 345 345 345 345 344 344 344 344 344 345 346 346 346 346 345 345 345 346 346 346 345
359 356 354 352 353 354 353 350 347 344 343 346 349 351 352 351 350 350 351 352 354 355 356 354 352 349 347 347 346 343 339 339 340 341 342 343 343 343 342 342 341 340 339 339 340 340 341 341 341 340 340 340 341 342 342 344 345 345 345 346 346 346 346 346 346 345 346 345 345 345 345 345 345 345 345 346 346 346 346 346 346 346 346 346 346 346
359 356 353 352 352 353 352 350 347 344 344 347 350 352 352 351 349 349 351 354 355 355 355 354 351 349 348 347 347 344 339 338 339 341 342 343 343 343 343 342 342 340 340 339 339 340 341 341 341 341 340 340 341 341 342 343 344 344 344 345 346 346 346 346 346 346 346 346 346 346 346 345 345 345 346 346 347 347 346 346 346 346 346 346 346 346
356 354 353 353 353 352 351 350 348 348 348 349 351 352 352 350 349 349 350 352 353 353 352 352 351 350 350 350 348 345 340 339 339 340 342 343 343 344 343 343 342 341 340 340 339 340 340 341 341 341 341 341 341 341 341 342 343 343 343 344 345 346 345 346 346 346 346 346 346 346 346 346 346 346 346 346 347 347 347 346 346 346 346 346 346 345
354 354 354 355 355 354 352 351 350 351 352 350 350 350 351 351 350 350 350 351 351 350 349 349 350 352 352 353 351 348 344 341 340 340 341 343 344 344 344 343 342 342 341 340 340 340 340 340 341 341 341 341 341 341 341 341 341 341 342 343 345 345 345 346 346 346 346 346 346 346 346 346 346 346 346 346 346 346 346 346 346 346 346 346 346 345
357 356 357 357 357 357 355 353 352 352 352 351 350 349 349 350 350 350 351 352 352 350 348 346 348 350 352 354 353 351 347 343 341 340 341 342 343 344 344 343 343 342 342 341 340 340 339 340 340 341 341 342 342 341 341 341 340 340 340 342 343 344 345 345 346 346 346 346 346 346 346 346 346 346 346 346 346 346 346 346 346 346 346 346 346 345
2 1 0 0 0 0 358 355 353 352 352 353 352 350 349 348 347 348 349 351 351 350 348 346 345 346 349 352 353 351 347 343 341 340 341 342 342 343 343 343 342 342 342 341 340 340 339 339 340 340 341 342 341 341 340 340 339 338 339 341 342 343 344 345 345 345 346 346 346 346 346 346 346 346 346 346 346 346 346 346 346 346 345 345 345 345
8 6 4 3 3 2 0 356 352 350 352 354 355 355 353 350 348 346 346 347 348 348 348 346 344 343 344 348 350 349 345 341 339 340 340 341 341 342 342 342 342 342 342 341 341 340 339 339 340 340 341 341 341 340 339 339 338 337 338 339 341 343 344 344 345 345 345 346 346 346 346 346 346 346 346 346 346 346 345 345 345 346 345 345 345 345
12 8 6 5 3 2 0 356 351 349 352 355 357 359 359 356 352 347 343 342 342 344 345 344 343 341 341 343 345 346 343 340 339 339 340 342 342 342 342 342 342 341 341 341 341 340 340 340 340 340 341 341 340 340 339 338 337 337 337 339 341 343 344 344 344 345 345 346 346 346 346 346 346 346 346 346 346 345 345 345 346 346 346 345 345 345
14 10 8 6 4 2 359 356 353 353 356 357 358 357 356 354 352 347 341 337 337 338 339 338 339 340 341 341 342 343 341 340 339 339 339 341 342 343 343 342 342 342 341 341 341 341 340 340 340 340 341 340 340 339 338 338 337 337 338 340 342 343 344 344 344 344 345 345 346 346 346 346 346 346 346 346 345 345 345 345 346 346 346 346 346 345
15 11 10 9 7 4 0 357 356 357 359 0 358 353 347 345 345 344 339 335 334 335 335 334 335 338 342 344 345 343 341 340 339 338 339 339 341 342 342 342 341 341 341 340 340 340 340 341 340 340 340 340 339 338 338 338 338 338 340 341 343 344 344 344 344 344 345 345 345 346 346 346 346 346 346 346 345 345 345 345 345 346 346 346 346 345
16 12 11 9 6 4 2 0 359 358 357 355 352 346 340 339 340 341 339 337 335 335 335 334 334 336 341 346 347 345 343 340 339 338 338 338 340 341 342 341 340 340 340 339 339 339 340 340 340 340 340 340 339 339 339 339 339 340 341 343 344 344 344 344 344 344 345 345 345 345 346 346 346 346 346 345 345 345 345 345 345 346 346 346 346 345
19 14 12 7 4 1 0 359 358 355 351 347 344 342 340 341 342 342 341 338 336 337 337 336 336 337 341 345 347 346 345 342 339 337 336 336 338 341 342 341 340 340 340 339 338 339 340 341 340 339 339 340 340 340 340 339 339 341 343 344 345 344 344 344 344 344 345 345 345 345 346 346 346 346 346 345 345 345 345 345 345 345 346 346 345 345
20 17 14 7 2 359 358 356 353 350 346 344 343 343 343 343 343 342 341 338 337 339 341 341 340 339 340 343 346 347 346 343 339 336 334 334 336 340 343 342 341 340 340 339 339 339 340 340 340 339 339 340 340 340 340 340 340 342 345 345 345 344 344 344 344 344 345 345 345 345 345 346 346 346 346 345 345 345 345 345 344 345 345 346 345 345
19 17 13 7 0 356 355 352 350 347 344 344 344 345 344 343 342 341 341 339 340 341 342 343 342 339 337 338 342 346 346 343 338 335 333 332 335 339 343 343 341 339 339 339 339 340 340 340 339 339 340 340 340 340 340 340 342 344 346 345 345 344 344 344 344 345 345 345 345 345 345 345 345 345 346 345 345 345 345 345 345 345 345 345 345 346
19 15 12 6 359 353 352 350 348 347 346 346 344 344 343 342 342 341 341 341 341 341 340 340 339 336 333 332 335 340 344 341 337 334 333 332 334 338 342 343 342 340 338 338 340 341 340 339 339 339 340 340 340 341 341 342 344 345 346 345 344 344 344 344 345 345 345 345 345 345 344 344 345 345 345 345 345 345 345 345 345 345 345 345 345 346
19 13 10 4 357 352 350 350 349 349 348 346 343 341 341 341 342 342 342 341 340 339 337 335 333 331 328 325 327 334 342 341 338 335 334 332 333 337 342 344 343 340 339 339 340 341 340 339 341 342 342 342 341 341 342 343 344 345 345 345 344 344 344 344 345 345 345 345 344 344 344 344 344 345 345 345 345 345 345 345 345 345 345 345 345 345
17 10 7 0 354 350 350 350 351 350 348 345 343 341 340 340 340 341 341 340 339 337 335 333 330 328 325 323 325 332 340 342 341 339 335 332 333 337 342 344 343 340 340 339 340 340 339 339 342 345 345 343 342 342 342 344 344 345 345 344 344 344 344 345 345 345 345 345 344 344 344 344 344 344 344 345 345 345 344 344 344 344 344 344 345 345
16 9 3 357 353 351 349 349 351 351 348 346 345 344 342 341 340 339 338 338 337 336 335 332 328 325 324 320 323 332 342 345 345 342 337 333 334 338 342 344 342 340 339 338 338 338 338 339 341 344 344 342 341 342 343 344 344 344 344 344 344 344 345 345 345 345 345 344 344 344 344 344 344 344 344 344 344 344 344 344 344 343 343 344 344 344
16 7 2 358 357 354 351 350 351 351 348 348 347 346 344 341 338 336 335 335 334 332 331 327 323 323 324 322 326 336 346 349 349 346 340 336 335 338 341 343 343 340 338 337 337 337 337 338 340 342 342 341 341 342 343 343 344 344 344 344 344 345 345 345 345 344 344 344 344 344 344 344 344 344 344 344 344 344 344 344 343 343 343 343 343 343
16 10 6 3 1 358 355 352 351 350 349 349 348 346 343 340 336 333 332 332 330 327 324 322 324 328 332 332 335 343 351 354 352 349 345 339 335 336 340 343 342 340 338 336 336 335 335 335 337 339 341 341 342 342 342 343 343 343 344 344 344 344 344 345 344 344 344 344 344 344 344 344 344 344 344 344 344 344 344 343 343 343 342 342 342 342
17 13 11 8 5 1 357 352 350 349 349 349 347 344 340 339 338 338 338 336 334 331 330 331 333 337 341 342 344 348 355 357 355 352 350 341 335 334 338 342 342 339 336 334 333 333 332 333 335 338 340 341 342 341 342 342 342 343 343 344 344 344 344 344 344 344 344 344 344 344 344 344 344 344 344 344 344 344 344 343 343 342 342 341 340 340
18 15 12 9 5 0 355 352 349 349 350 349 346 342 339 338 341 345 349 349 346 344 342 341 341 342 343 344 344 346 353 356 355 354 352 343 335 334 339 342 342 338 334 333 333 333 331 331 333 336 339 341 341 342 342 342 342 342 343 343 344 344 344 344 344 344 344 344 344 344 344 344 344 344 344 344 344 344 344 343 343 342 341 341 340 339
17 13 9 5 1 357 355 354 353 354 354 354 350 344 340 341 347 353 358 357 354 350 348 347 346 345 344 345 344 343 347 351 354 354 352 344 336 335 339 342 342 338 333 332 333 333 331 329 331 335 338 340 340 341 342 342 342 342 343 343 343 343 343 343 344 344 344 344 344 344 344 344 344 344 344 344 344 344 344 344 343 342 342 341 339 338
18 12 6 2 359 359 358 359 359 359 359 360 357 351 346 348 354 358 360 357 354 352 351 350 347 344 344 345 342 339 340 345 351 352 350 344 338 336 338 341 341 338 335 333 332 331 329 328 330 334 337 338 339 340 341 341 342 342 342 342 342 342 342 343 343 344 344 344 344 344 344 344 344 344 344 344 344 344 344 344 343 343 342 341 339 338
27 21 15 10 7 6 6 7 7 4 2 2 1 359 356 357 358 359 357 354 352 352 352 350 346 342 341 339 335 333 337 343 349 351 349 345 340 337 337 339 340 339 337 333 331 330 330 331 333 336 337 338 338 339 340 341 341 341 342 342 342 342 342 343 343 343 343 343 344 344 344 344 344 344 344 344 344 344 344 344 344 344 343 342 339 337
35 31 25 20 17 14 13 13 12 10 6 4 3 2 2 3 2 358 354 352 351 350 349 347 344 341 336 333 331 333 338 343 348 349 348 345 340 336 336 338 340 341 339 336 334 333 333 334 336 338 338 338 337 337 339 340 341 341 341 341 342 342 342 343 343 343 343 343 343 343 344 344 344 344 344 344 344 344 345 345 345 344 343 341 339 337
31 27 24 21 19 17 14 13 12 11 9 7 6 6 6 5 3 359 355 353 350 347 344 341 339 337 335 334 334 336 339 341 344 347 347 344 338 334 335 337 339 341 342 340 337 335 333 332 334 337 337 337 336 336 337 339 340 341 341 341 341 341 342 343 343 343 343 343 343 343 343 343 343 343 343 344 344 344 345 346 346 345 343 341 339 337
21 17 14 14 14 14 12 10 9 9 8 8 7 7 6 5 2 360 356 354 350 345 340 337 335 334 335 336 336 334 331 331 337 343 343 340 334 331 333 334 335 338 341 342 339 332 328 328 330 332 334 335 335 336 336 338 339 340 340 340 340 340 341 342 342 342 342 342 342 342 343 343 343 343 343 343 344 344 345 346 346 345 343 341 339 337
13 8 6 7 8 9 9 8 6 5 5 5 5 5 4 3 1 359 357 354 350 345 339 334 331 330 330 330 325 317 317 322 330 337 338 334 330 329 331 331 332 334 336 338 334 326 318 321 324 326 330 331 333 333 335 336 338 339 339 339 338 338 340 341 342 342 342 342 342 342 342 342 342 342 342 343 343 344 345 346 346 345 343 341 339 336
6 1 360 1 4 6 6 5 4 3 3 2 2 2 2 1 360 358 356 353 350 346 340 334 329 327 326 324 319 315 315 319 327 333 335 331 327 327 328 330 331 332 333 334 331 326 318 315 318 322 325 327 329 331 333 335 337 338 339 338 338 337 338 340 341 341 341 341 341 341 341 341 341 341 342 342 342 343 344 345 345 345 344 341 338 336
3 358 357 358 0 2 3 3 2 2 1 0 0 360 359 359 357 356 355 353 351 348 344 337 331 326 323 321 319 317 316 320 327 333 334 331 327 326 327 329 330 331 332 332 331 328 323 319 320 322 323 324 326 329 331 334 336 337 337 337 337 336 337 339 340 340 340 340 339 340 340 341 341 340 341 341 341 341 341 342 343 344 343 341 339 337
5 2 360 359 359 360 0 1 0 0 360 359 359 359 358 357 356 354 353 351 351 350 347 343 338 331 324 319 317 316 316 321 328 333 335 333 329 327 327 328 330 331 331 331 331 329 326 323 323 323 323 324 325 328 330 333 334 335 335 336 336 336 336 337 338 339 339 339 339 339 339 339 339 339 339 339 339 339 339 340 341 342 342 341 340 338
9 6 4 2 1 360 359 359 359 359 358 358 359 359 358 356 355 352 350 350 350 350 349 347 343 338 332 325 318 315 315 321 328 334 337 337 334 331 328 328 329 330 330 330 329 328 325 323 323 324 324 324 325 327 329 331 333 334 335 335 335 335 335 337 337 338 338 338 338 338 337 338 337 337 336 336 337 337 338 339 339 340 341 340 340 339
10 8 6 4 2 0 359 359 359 358 357 357 358 358 357 356 353 351 349 349 350 349 349 347 345 342 338 333 326 321 321 327 332 337 339 339 337 335 330 327 328 329 330 328 327 326 324 323 323 324 325 325 324 325 327 329 331 333 334 334 334 334 335 336 337 338 338 337 336 336 336 336 336 335 335 335 336 337 337 338 339 340 339 339 338 338
10 8 6 5 3 0 358 358 358 357 356 356 356 357 356 355 353 351 350 350 350 350 348 346 344 342 340 338 335 333 332 334 336 337 337 337 337 335 332 329 328 328 328 327 325 323 323 322 323 324 324 323 323 323 324 327 329 330 330 331 332 333 335 336 337 337 337 336 335 334 335 335 335 335 335 335 336 337 337 338 339 339 339 338 338 337
9 6 4 3 2 360 358 357 356 354 354 354 355 355 355 355 354 353 352 351 351 350 349 346 344 341 341 341 341 340 339 338 337 336 336 337 338 337 335 331 328 328 328 326 324 322 321 320 319 318 319 320 321 322 324 326 327 328 328 330 332 334 335 336 336 337 336 336 335 334 334 334 335 335 335 335 335 336 335 335 336 337 337 337 337 336
7 4 3 1 0 358 357 355 353 351 352 353 356 357 357 356 355 354 353 352 351 350 349 347 345 343 342 343 344 343 342 341 339 338 339 340 341 341 338 334 331 329 328 326 325 322 320 318 316 315 316 316 317 319 322 324 325 327 329 330 331 332 333 334 335 335 335 335 334 333 333 334 334 335 334 334 333 333 332 332 332 333 334 334 334 333
6 3 0 359 358 357 355 353 351 351 353 355 357 359 359 358 355 353 352 351 351 350 349 348 346 344 344 345 345 346 345 343 342 341 342 343 343 343 341 337 333 331 328 327 325 323 320 318 316 315 315 315 316 317 319 321 323 326 329 329 328 327 328 331 333 335 335 335 334 333 333 333 334 334 333 332 331 330 330 329 329 330 331 332 332 331
5 1 359 356 355 354 353 352 352 353 356 359 0 1 0 358 356 353 351 350 350 350 349 348 346 344 343 343 345 346 346 345 344 343 343 344 344 344 342 339 336 333 330 328 326 324 322 319 317 316 315 316 316 316 317 319 322 326 328 328 328 328 329 331 333 334 334 334 333 333 333 333 332 332 331 330 329 328 328 328 328 328 328 329 329 329
4 0 357 355 354 354 354 355 356 357 359 0 1 0 360 358 356 353 352 350 349 349 349 348 346 344 342 342 343 344 345 345 345 345 345 345 345 345 343 341 339 336 334 329 327 325 323 322 319 316 315 315 314 314 314 317 322 326 329 330 330 331 331 330 331 332 332 332 332 333 333 332 331 330 329 328 327 327 328 328 328 328 327 328 328 328
1 359 356 355 355 356 358 359 0 0 0 360 359 359 359 358 356 354 352 350 348 348 348 347 346 345 344 343 342 342 343 344 345 345 345 346 346 346 344 342 340 338 336 331 327 324 324 322 320 318 317 315 313 312 313 317 321 325 329 331 331 330 326 325 327 329 330 330 331 332 332 331 330 329 328 328 328 328 328 328 328 328 329 329 329 328
0 358 357 357 358 360 1 2 2 2 2 1 359 357 357 357 356 355 353 350 349 348 348 348 347 346 344 343 342 341 341 342 343 344 345 346 347 346 345 343 341 339 336 332 328 325 321 318 317 317 317 317 315 313 314 317 322 326 329 330 330 327 324 324 326 328 328 329 329 330 331 331 330 329 329 329 329 329 328 328 328 329 329 330 330 330
1 359 358 358 359 1 3 3 3 3 2 1 359 358 357 357 356 355 353 351 350 349 348 348 348 346 344 342 341 341 341 341 342 342 344 345 346 346 346 345 342 339 336 333 330 327 323 318 315 314 315 315 316 316 318 322 326 328 329 329 329 327 326 327 328 328 328 327 328 329 331 332 332 331 330 329 328 328 328 328 328 328 329 330 330 330
1 360 359 359 360 1 3 4 4 3 3 1 360 358 358 357 356 354 353 352 350 349 348 348 348 346 343 341 341 341 340 340 340 340 341 343 344 345 345 344 342 339 336 333 331 329 327 324 321 318 316 314 314 318 323 327 329 330 329 329 328 328 327 327 328 329 328 328 327 329 331 332 333 332 330 329 328 327 327 327 327 328 328 329 330 330
0 360 359 360 0 2 3 3 4 3 2 1 359 358 358 357 355 354 353 352 351 349 348 348 347 345 342 342 342 341 340 339 338 339 340 341 342 343 343 342 341 339 338 336 334 332 330 328 327 324 320 317 315 318 323 328 330 330 329 329 328 328 327 326 327 328 328 328 328 329 330 331 331 330 329 328 327 326 326 326 327 327 328 329 330 330
1 1 1 2 2 3 2 3 3 3 1 359 357 357 357 357 356 354 352 351 351 350 349 347 345 343 342 341 341 341 341 340 339 339 340 341 341 342 342 342 341 340 339 339 338 338 336 335 334 332 330 326 323 323 325 328 329 330 330 329 329 328 326 326 327 328 328 328 329 330 331 330 330 329 328 326 325 324 324 325 326 327 328 329 330 330
3 4 4 4 5 4 3 3 3 2 0 358 356 355 355 355 355 354 353 352 351 350 348 346 344 342 341 340 340 341 341 340 340 340 340 341 341 341 341 342 342 342 341 341 341 342 342 341 340 341 340 338 335 332 330 330 330 330 331 331 331 329 327 326 327 328 329 329 329 330 330 330 330 330 330 327 324 323 323 324 325 326 327 329 330 330
6 6 6 6 6 5 4 3 3 2 0 357 356 354 353 353 353 353 352 352 350 349 348 346 344 342 340 340 340 341 341 340 340 340 340 340 341 341 341 342 342 342 342 342 342 342 343 342 341 340 340 342 343 341 337 333 332 332 332 331 331 331 329 327 327 329 329 330 330 330 330 331 331 332 331 328 326 324 324 324 324 325 326 327 328 329